QPF
0.00 0.00 0.00 0.00 0.00 0.00 0.00 0.00 0.01 0.02 0.02 0.02 0.02 0.02 0.02 0.01 0.02 0.01 0.01 0.03 0.04 0.03 0.03 0.04 0.03 0.03 0.03 0.02 0.02 0.01 0.01 0.01 0.01 0.01 0.01 0.01 0.01 0.01 0.01 0.01 0.01 0.01 0.01
0.00 0.00 0.00 0.00 0.00 0.00 0.00 0.01 0.02 0.02 0.02 0.02 0.01 0.01 0.02 0.01 0.01 0.01 0.01 0.02 0.04 0.04 0.04 0.04 0.05 0.05 0.03 0.02 0.03 0.03 0.02 0.01 0.01 0.01 0.01 0.01 0.01 0.01 0.01 0.01 0.01 0.01 0.01
0.00 0.00 0.00 0.00 0.00 0.00 0.00 0.01 0.02 0.02 0.02 0.02 0.01 0.02 0.02 0.01 0.01 0.01 0.01 0.01 0.02 0.04 0.05 0.05 0.05 0.06 0.05 0.05 0.05 0.04 0.03 0.02 0.01 0.01 0.01 0.01 0.01 0.02 0.02 0.02 0.02 0.01 0.01
0.01 0.01 0.01 0.01 0.01 0.00 0.01 0.01 0.01 0.02 0.02 0.02 0.02 0.02 0.02 0.02 0.01 0.01 0.02 0.01 0.01 0.02 0.04 0.05 0.06 0.06 0.07 0.07 0.08 0.05 0.04 0.03 0.02 0.02 0.01 0.01 0.02 0.02 0.02 0.02 0.02 0.02 0.02
0.02 0.01 0.01 0.01 0.01 0.01 0.02 0.02 0.01 0.02 0.02 0.02 0.02 0.03 0.03 0.02 0.02 0.02 0.02 0.02 0.02 0.02 0.03 0.06 0.07 0.05 0.06 0.07 0.09 0.08 0.07 0.06 0.05 0.03 0.02 0.02 0.02 0.02 0.02 0.02 0.02 0.02 0.02
0.04 0.02 0.02 0.02 0.02 0.02 0.01 0.02 0.02 0.02 0.02 0.04 0.04 0.03 0.03 0.02 0.03 0.04 0.04 0.04 0.04 0.04 0.03 0.02 0.04 0.04 0.06 0.08 0.09 0.10 0.10 0.11 0.08 0.07 0.05 0.04 0.04 0.02 0.02 0.02 0.02 0.02 0.02
0.07 0.05 0.04 0.04 0.05 0.04 0.02 0.03 0.03 0.03 0.03 0.03 0.04 0.03 0.02 0.02 0.03 0.04 0.05 0.05 0.04 0.04 0.04 0.05 0.04 0.02 0.03 0.05 0.06 0.08 0.10 0.12 0.11 0.09 0.08 0.06 0.05 0.04 0.03 0.02 0.03 0.03 0.03
0.07 0.05 0.05 0.06 0.06 0.04 0.04 0.04 0.05 0.03 0.03 0.04 0.04 0.04 0.03 0.01 0.02 0.03 0.04 0.04 0.04 0.05 0.05 0.06 0.05 0.04 0.03 0.03 0.02 0.05 0.09 0.10 0.11 0.13 0.12 0.09 0.08 0.06 0.04 0.04 0.04 0.04 0.03
0.10 0.07 0.05 0.06 0.05 0.03 0.03 0.04 0.04 0.03 0.02 0.04 0.04 0.03 0.01 0.01 0.01 0.01 0.02 0.04 0.05 0.05 0.05 0.05 0.04 0.03 0.03 0.03 0.03 0.03 0.06 0.07 0.09 0.12 0.13 0.11 0.09 0.07 0.06 0.05 0.06 0.06 0.05
0.11 0.10 0.07 0.06 0.06 0.05 0.04 0.05 0.04 0.03 0.02 0.03 0.02 0.02 0.01 0.01 0.01 0.01 0.01 0.02 0.03 0.03 0.03 0.04 0.03 0.04 0.04 0.03 0.03 0.02 0.03 0.05 0.07 0.10 0.12 0.11 0.09 0.07 0.06 0.06 0.06 0.07 0.05
0.16 0.14 0.10 0.08 0.07 0.06 0.06 0.06 0.06 0.03 0.02 0.02 0.02 0.02 0.02 0.01 0.01 0.01 0.01 0.02 0.02 0.02 0.02 0.02 0.03 0.03 0.04 0.03 0.02 0.03 0.03 0.03 0.04 0.06 0.08 0.08 0.08 0.08 0.08 0.08 0.09 0.09 0.08
0.12 0.12 0.10 0.10 0.09 0.06 0.05 0.05 0.05 0.04 0.02 0.02 0.02 0.02 0.02 0.02 0.02 0.02 0.01 0.01 0.01 0.01 0.02 0.02 0.03 0.03 0.04 0.04 0.03 0.03 0.04 0.05 0.05 0.06 0.06 0.06 0.07 0.06 0.07 0.08 0.09 0.09 0.09
0.08 0.08 0.08 0.08 0.06 0.05 0.04 0.05 0.04 0.04 0.04 0.03 0.03 0.02 0.02 0.02 0.02 0.02 0.02 0.01 0.01 0.01 0.01 0.01 0.02 0.03 0.03 0.03 0.04 0.05 0.06 0.08 0.08 0.08 0.06 0.05 0.04 0.04 0.05 0.06 0.07 0.07 0.08
0.06 0.08 0.08 0.08 0.07 0.05 0.05 0.05 0.05 0.04 0.05 0.05 0.05 0.04 0.03 0.03 0.03 0.02 0.02 0.02 0.01 0.01 0.01 0.02 0.02 0.03 0.03 0.04 0.06 0.06 0.07 0.09 0.08 0.07 0.06 0.05 0.04 0.04 0.04 0.04 0.04 0.04 0.04
0.06 0.06 0.07 0.09 0.09 0.08 0.08 0.07 0.07 0.06 0.06 0.05 0.06 0.05 0.04 0.05 0.04 0.03 0.02 0.02 0.02 0.01 0.01 0.02 0.03 0.03 0.03 0.05 0.08 0.09 0.10 0.09 0.08 0.07 0.06 0.05 0.06 0.06 0.05 0.05 0.04 0.04 0.03
0.07 0.07 0.07 0.08 0.09 0.09 0.08 0.08 0.07 0.06 0.06 0.06 0.07 0.06 0.04 0.04 0.04 0.04 0.04 0.04 0.04 0.03 0.04 0.04 0.05 0.06 0.05 0.07 0.10 0.10 0.09 0.09 0.07 0.06 0.06 0.08 0.08 0.08 0.08 0.07 0.06 0.05 0.05
0.08 0.07 0.07 0.09 0.12 0.10 0.08 0.08 0.08 0.08 0.07 0.07 0.08 0.08 0.07 0.06 0.05 0.04 0.05 0.06 0.06 0.06 0.06 0.06 0.07 0.08 0.07 0.07 0.08 0.08 0.08 0.07 0.06 0.06 0.06 0.06 0.07 0.07 0.07 0.06 0.05 0.05 0.05
0.06 0.06 0.07 0.10 0.13 0.13 0.12 0.11 0.11 0.09 0.08 0.08 0.08 0.08 0.08 0.09 0.07 0.06 0.06 0.06 0.06 0.06 0.06 0.06 0.06 0.07 0.06 0.06 0.06 0.05 0.04 0.04 0.03 0.04 0.04 0.04 0.04 0.05 0.05 0.05 0.05 0.04 0.03
0.05 0.05 0.05 0.07 0.09 0.11 0.11 0.09 0.09 0.08 0.08 0.08 0.07 0.08 0.07 0.08 0.07 0.07 0.06 0.07 0.07 0.07 0.06 0.06 0.05 0.06 0.06 0.06 0.05 0.05 0.06 0.05 0.04 0.03 0.03 0.03 0.03 0.04 0.05 0.06 0.06 0.05 0.04
0.05 0.04 0.05 0.06 0.08 0.10 0.09 0.08 0.08 0.07 0.06 0.05 0.05 0.06 0.06 0.07 0.06 0.06 0.07 0.07 0.08 0.08 0.09 0.08 0.07 0.07 0.07 0.06 0.06 0.05 0.06 0.06 0.06 0.05 0.05 0.04 0.05 0.04 0.05 0.05 0.05 0.05 0.06
0.07 0.07 0.07 0.08 0.09 0.11 0.12 0.11 0.10 0.09 0.08 0.06 0.05 0.05 0.06 0.08 0.08 0.07 0.07 0.07 0.08 0.08 0.08 0.08 0.06 0.05 0.05 0.05 0.06 0.06 0.06 0.07 0.08 0.08 0.07 0.07 0.06 0.05 0.05 0.05 0.03 0.03 0.03
0.05 0.07 0.09 0.09 0.10 0.12 0.15 0.13 0.11 0.09 0.07 0.05 0.05 0.06 0.08 0.10 0.10 0.10 0.09 0.08 0.06 0.05 0.05 0.04 0.03 0.04 0.05 0.06 0.06 0.06 0.07 0.08 0.09 0.10 0.10 0.11 0.09 0.07 0.06 0.05 0.04 0.03 0.03
0.03 0.04 0.08 0.09 0.09 0.12 0.13 0.12 0.10 0.08 0.07 0.07 0.08 0.09 0.11 0.13 0.14 0.14 0.14 0.12 0.09 0.08 0.06 0.06 0.06 0.06 0.06 0.07 0.06 0.07 0.06 0.06 0.06 0.05 0.05 0.05 0.04 0.04 0.04 0.04 0.04 0.03 0.03
0.03 0.03 0.03 0.03 0.04 0.05 0.07 0.07 0.07 0.06 0.06 0.07 0.08 0.09 0.11 0.12 0.13 0.12 0.11 0.10 0.08 0.08 0.08 0.06 0.06 0.05 0.05 0.04 0.04 0.05 0.05 0.04 0.04 0.03 0.02 0.03 0.03 0.03 0.03 0.02 0.03 0.03 0.03
0.02 0.02 0.02 0.02 0.03 0.03 0.05 0.07 0.09 0.09 0.10 0.10 0.09 0.09 0.09 0.08 0.09 0.09 0.08 0.07 0.07 0.06 0.05 0.04 0.03 0.03 0.03 0.04 0.04 0.04 0.04 0.04 0.04 0.03 0.02 0.02 0.03 0.03 0.02 0.02 0.02 0.02 0.02
0.02 0.02 0.02 0.03 0.04 0.05 0.06 0.08 0.09 0.09 0.08 0.09 0.09 0.09 0.10 0.09 0.07 0.06 0.05 0.05 0.05 0.05 0.05 0.05 0.04 0.03 0.02 0.02 0.03 0.02 0.03 0.03 0.03 0.03 0.02 0.02 0.01 0.01 0.02 0.01 0.01 0.02 0.02
MSLP
1018.61 1018.74 1018.81 1018.83 1018.84 1018.89 1018.98 1019.12 1019.32 1019.54 1019.77 1019.98 1020.16 1020.32 1020.45 1020.59 1020.76 1020.95 1021.17 1021.42 1021.68 1021.93 1022.17 1022.38 1022.57 1022.75 1022.92 1023.09 1023.26 1023.44 1023.63 1023.80 1023.97 1024.12 1024.26 1024.40 1024.53 1024.67 1024.80 1024.93 1025.05 1025.16 1025.23
1018.74 1018.88 1018.96 1019.00 1019.04 1019.09 1019.19 1019.33 1019.53 1019.75 1019.98 1020.20 1020.39 1020.55 1020.70 1020.83 1020.98 1021.14 1021.33 1021.55 1021.78 1022.02 1022.26 1022.49 1022.70 1022.90 1023.09 1023.26 1023.42 1023.57 1023.71 1023.85 1023.98 1024.11 1024.25 1024.40 1024.56 1024.72 1024.89 1025.04 1025.18 1025.28 1025.35
1018.72 1018.88 1019.00 1019.09 1019.18 1019.28 1019.41 1019.58 1019.79 1020.02 1020.26 1020.49 1020.69 1020.87 1021.02 1021.15 1021.27 1021.40 1021.55 1021.71 1021.90 1022.11 1022.32 1022.55 1022.77 1022.98 1023.17 1023.35 1023.51 1023.64 1023.76 1023.86 1023.97 1024.08 1024.22 1024.37 1024.55 1024.74 1024.93 1025.11 1025.26 1025.36 1025.43
1018.58 1018.78 1018.95 1019.12 1019.28 1019.45 1019.63 1019.84 1020.07 1020.31 1020.56 1020.80 1021.02 1021.21 1021.37 1021.50 1021.61 1021.70 1021.80 1021.91 1022.03 1022.18 1022.36 1022.55 1022.76 1022.97 1023.18 1023.36 1023.52 1023.65 1023.76 1023.85 1023.94 1024.05 1024.18 1024.33 1024.52 1024.72 1024.93 1025.11 1025.27 1025.38 1025.45
1018.37 1018.60 1018.85 1019.09 1019.33 1019.58 1019.82 1020.07 1020.32 1020.58 1020.83 1021.08 1021.31 1021.52 1021.69 1021.82 1021.92 1021.99 1022.05 1022.09 1022.16 1022.24 1022.36 1022.51 1022.69 1022.89 1023.09 1023.28 1023.45 1023.60 1023.71 1023.80 1023.89 1023.99 1024.12 1024.27 1024.45 1024.65 1024.85 1025.04 1025.19 1025.30 1025.37
1018.13 1018.39 1018.69 1019.01 1019.33 1019.64 1019.94 1020.22 1020.49 1020.75 1021.01 1021.25 1021.49 1021.71 1021.90 1022.05 1022.16 1022.22 1022.25 1022.25 1022.25 1022.27 1022.32 1022.41 1022.55 1022.73 1022.93 1023.13 1023.31 1023.47 1023.60 1023.71 1023.81 1023.90 1024.02 1024.16 1024.33 1024.51 1024.70 1024.88 1025.02 1025.13 1025.20
1017.87 1018.15 1018.49 1018.87 1019.26 1019.63 1019.96 1020.27 1020.54 1020.79 1021.03 1021.28 1021.52 1021.76 1021.98 1022.16 1022.29 1022.36 1022.37 1022.34 1022.29 1022.25 1022.24 1022.28 1022.37 1022.51 1022.69 1022.89 1023.09 1023.27 1023.43 1023.55 1023.66 1023.77 1023.88 1024.01 1024.16 1024.32 1024.49 1024.65 1024.78 1024.89 1024.96
1017.63 1017.91 1018.28 1018.69 1019.12 1019.52 1019.88 1020.19 1020.45 1020.69 1020.91 1021.15 1021.40 1021.65 1021.90 1022.12 1022.28 1022.38 1022.40 1022.37 1022.29 1022.20 1022.13 1022.10 1022.14 1022.25 1022.40 1022.60 1022.80 1023.00 1023.17 1023.33 1023.45 1023.57 1023.68 1023.81 1023.94 1024.09 1024.24 1024.38 1024.51 1024.62 1024.70
1017.42 1017.69 1018.05 1018.48 1018.92 1019.33 1019.70 1020.00 1020.25 1020.46 1020.67 1020.90 1021.15 1021.42 1021.70 1021.96 1022.17 1022.30 1022.35 1022.32 1022.22 1022.10 1021.99 1021.91 1021.90 1021.96 1022.08 1022.25 1022.45 1022.66 1022.85 1023.03 1023.18 1023.31 1023.43 1023.56 1023.70 1023.84 1023.99 1024.14 1024.27 1024.39 1024.50
1017.25 1017.49 1017.84 1018.26 1018.70 1019.11 1019.47 1019.76 1019.99 1020.18 1020.37 1020.58 1020.83 1021.12 1021.43 1021.73 1021.97 1022.15 1022.22 1022.21 1022.11 1021.97 1021.83 1021.71 1021.65 1021.66 1021.74 1021.89 1022.08 1022.28 1022.49 1022.67 1022.85 1023.01 1023.16 1023.31 1023.47 1023.63 1023.80 1023.97 1024.13 1024.28 1024.42
1017.11 1017.33 1017.66 1018.06 1018.49 1018.89 1019.23 1019.50 1019.72 1019.89 1020.06 1020.26 1020.51 1020.80 1021.12 1021.44 1021.73 1021.93 1022.03 1022.04 1021.95 1021.81 1021.64 1021.49 1021.40 1021.37 1021.42 1021.54 1021.71 1021.90 1022.11 1022.31 1022.51 1022.70 1022.89 1023.09 1023.29 1023.50 1023.72 1023.93 1024.14 1024.33 1024.52
1017.01 1017.21 1017.52 1017.90 1018.30 1018.69 1019.01 1019.27 1019.46 1019.62 1019.78 1019.97 1020.20 1020.49 1020.81 1021.14 1021.43 1021.65 1021.78 1021.81 1021.74 1021.60 1021.44 1021.28 1021.17 1021.12 1021.14 1021.24 1021.38 1021.57 1021.77 1021.99 1022.22 1022.45 1022.69 1022.94 1023.21 1023.49 1023.78 1024.06 1024.33 1024.58 1024.81
1016.94 1017.13 1017.42 1017.77 1018.15 1018.51 1018.82 1019.06 1019.24 1019.38 1019.52 1019.69 1019.91 1020.17 1020.48 1020.80 1021.09 1021.32 1021.46 1021.51 1021.46 1021.36 1021.21 1021.07 1020.97 1020.92 1020.94 1021.02 1021.16 1021.33 1021.55 1021.78 1022.04 1022.31 1022.61 1022.93 1023.28 1023.64 1024.00 1024.35 1024.69 1024.99 1025.27
1016.89 1017.07 1017.34 1017.67 1018.01 1018.34 1018.62 1018.84 1019.00 1019.13 1019.25 1019.41 1019.60 1019.84 1020.12 1020.41 1020.69 1020.92 1021.07 1021.13 1021.12 1021.06 1020.96 1020.87 1020.80 1020.78 1020.82 1020.92 1021.07 1021.26 1021.48 1021.74 1022.02 1022.35 1022.70 1023.09 1023.51 1023.94 1024.38 1024.80 1025.19 1025.55 1025.85
1016.83 1017.01 1017.26 1017.55 1017.85 1018.14 1018.39 1018.58 1018.72 1018.83 1018.94 1019.07 1019.23 1019.45 1019.69 1019.96 1020.21 1020.43 1020.59 1020.69 1020.73 1020.72 1020.69 1020.67 1020.68 1020.73 1020.82 1020.96 1021.15 1021.37 1021.62 1021.90 1022.22 1022.59 1022.99 1023.43 1023.91 1024.40 1024.89 1025.36 1025.79 1026.17 1026.49
1016.76 1016.93 1017.14 1017.39 1017.65 1017.88 1018.08 1018.24 1018.35 1018.45 1018.53 1018.65 1018.79 1018.98 1019.20 1019.43 1019.67 1019.88 1020.06 1020.19 1020.29 1020.36 1020.43 1020.50 1020.61 1020.76 1020.94 1021.15 1021.40 1021.67 1021.96 1022.29 1022.64 1023.04 1023.47 1023.95 1024.45 1024.98 1025.49 1025.98 1026.42 1026.80 1027.12
1016.65 1016.80 1016.98 1017.18 1017.37 1017.56 1017.70 1017.82 1017.90 1017.97 1018.05 1018.14 1018.27 1018.44 1018.65 1018.87 1019.10 1019.31 1019.51 1019.69 1019.85 1020.01 1020.18 1020.38 1020.61 1020.87 1021.16 1021.48 1021.81 1022.15 1022.50 1022.86 1023.25 1023.67 1024.12 1024.61 1025.11 1025.63 1026.13 1026.61 1027.02 1027.37 1027.65
1016.50 1016.64 1016.78 1016.93 1017.06 1017.18 1017.28 1017.35 1017.40 1017.45 1017.52 1017.61 1017.74 1017.91 1018.10 1018.33 1018.56 1018.79 1019.01 1019.24 1019.47 1019.72 1020.00 1020.32 1020.67 1021.06 1021.47 1021.90 1022.33 1022.75 1023.16 1023.57 1023.99 1024.42 1024.87 1025.34 1025.82 1026.30 1026.76 1027.19 1027.55 1027.85 1028.08
1016.34 1016.46 1016.57 1016.67 1016.76 1016.83 1016.87 1016.90 1016.93 1016.97 1017.03 1017.13 1017.27 1017.44 1017.65 1017.89 1018.13 1018.39 1018.65 1018.92 1019.21 1019.54 1019.91 1020.33 1020.80 1021.31 1021.83 1022.37 1022.89 1023.39 1023.87 1024.33 1024.77 1025.21 1025.65 1026.08 1026.52 1026.94 1027.34 1027.69 1027.99 1028.22 1028.39
1016.20 1016.31 1016.41 1016.48 1016.53 1016.56 1016.57 1016.57 1016.57 1016.60 1016.67 1016.78 1016.94 1017.14 1017.38 1017.63 1017.90 1018.18 1018.46 1018.77 1019.11 1019.49 1019.93 1020.43 1020.99 1021.58 1022.21 1022.83 1023.44 1024.02 1024.56 1025.05 1025.52 1025.95 1026.37 1026.77 1027.15 1027.51 1027.83 1028.11 1028.33 1028.49 1028.60
1016.10 1016.23 1016.33 1016.40 1016.44 1016.44 1016.43 1016.41 1016.41 1016.45 1016.53 1016.66 1016.84 1017.07 1017.33 1017.62 1017.91 1018.21 1018.51 1018.84 1019.20 1019.61 1020.08 1020.62 1021.23 1021.88 1022.56 1023.25 1023.92 1024.55 1025.14 1025.67 1026.15 1026.59 1026.98 1027.35 1027.68 1027.97 1028.22 1028.43 1028.58 1028.68 1028.74
1016.10 1016.26 1016.39 1016.48 1016.52 1016.53 1016.51 1016.49 1016.50 1016.54 1016.63 1016.79 1017.00 1017.26 1017.55 1017.86 1018.17 1018.48 1018.79 1019.12 1019.48 1019.89 1020.36 1020.91 1021.52 1022.19 1022.89 1023.61 1024.31 1024.98 1025.59 1026.15 1026.64 1027.07 1027.45 1027.79 1028.08 1028.33 1028.52 1028.67 1028.77 1028.83 1028.84
1016.21 1016.42 1016.59 1016.71 1016.79 1016.81 1016.81 1016.81 1016.82 1016.87 1016.99 1017.17 1017.40 1017.69 1018.01 1018.33 1018.66 1018.98 1019.29 1019.60 1019.94 1020.32 1020.77 1021.28 1021.87 1022.51 1023.20 1023.91 1024.61 1025.29 1025.91 1026.47 1026.97 1027.40 1027.78 1028.09 1028.36 1028.57 1028.74 1028.85 1028.92 1028.94 1028.93
1016.41 1016.68 1016.91 1017.09 1017.20 1017.27 1017.29 1017.31 1017.34 1017.41 1017.54 1017.74 1018.00 1018.31 1018.65 1018.99 1019.33 1019.65 1019.95 1020.24 1020.55 1020.89 1021.29 1021.75 1022.28 1022.88 1023.52 1024.19 1024.87 1025.52 1026.13 1026.68 1027.17 1027.60 1027.97 1028.28 1028.53 1028.73 1028.89 1028.99 1029.04 1029.05 1029.02
1016.67 1017.00 1017.30 1017.53 1017.70 1017.81 1017.87 1017.91 1017.97 1018.06 1018.22 1018.44 1018.72 1019.05 1019.40 1019.76 1020.11 1020.43 1020.72 1020.99 1021.27 1021.57 1021.91 1022.31 1022.78 1023.31 1023.89 1024.50 1025.12 1025.72 1026.30 1026.83 1027.30 1027.72 1028.08 1028.38 1028.63 1028.83 1028.98 1029.08 1029.13 1029.14 1029.10
1016.94 1017.33 1017.69 1017.98 1018.20 1018.36 1018.46 1018.54 1018.63 1018.75 1018.93 1019.17 1019.47 1019.82 1020.19 1020.57 1020.92 1021.25 1021.54 1021.80 1022.06 1022.32 1022.62 1022.96 1023.36 1023.82 1024.33 1024.87 1025.42 1025.96 1026.49 1026.97 1027.41 1027.81 1028.15 1028.44 1028.69 1028.89 1029.05 1029.15 1029.20 1029.21 1029.17
Thickness
5738 5738 5738 5737 5737 5736 5736 5735 5734 5733 5733 5732 5731 5731 5730 5729 5728 5727 5726 5725 5724 5723 5722 5720 5719 5717 5716 5714 5713 5712 5710 5709 5708 5707 5705 5704 5703 5702 5700 5699 5698 5697 5696
5737 5737 5736 5736 5736 5735 5734 5734 5733 5732 5732 5731 5731 5730 5729 5728 5727 5726 5725 5724 5723 5722 5721 5719 5718 5717 5715 5714 5712 5711 5710 5708 5707 5706 5704 5703 5701 5700 5699 5698 5696 5695 5694
5736 5736 5735 5735 5735 5734 5734 5733 5732 5731 5730 5730 5729 5729 5728 5727 5726 5726 5725 5724 5723 5722 5720 5719 5718 5716 5715 5714 5712 5710 5709 5708 5706 5705 5703 5702 5700 5699 5697 5696 5695 5694 5692
5736 5735 5734 5734 5734 5733 5733 5732 5731 5730 5729 5728 5728 5728 5727 5726 5725 5725 5724 5723 5722 5721 5720 5718 5717 5716 5715 5713 5712 5710 5709 5707 5706 5704 5703 5701 5700 5698 5697 5695 5694 5693 5691
5736 5735 5734 5734 5733 5732 5732 5731 5729 5729 5727 5727 5726 5726 5726 5725 5725 5724 5723 5723 5722 5720 5719 5718 5717 5716 5714 5713 5712 5711 5709 5707 5706 5704 5703 5701 5699 5698 5696 5695 5693 5692 5691
5736 5735 5734 5733 5732 5731 5731 5730 5728 5727 5726 5725 5725 5724 5724 5724 5724 5723 5723 5722 5721 5720 5719 5718 5717 5715 5714 5713 5712 5711 5709 5707 5706 5704 5703 5701 5699 5698 5696 5695 5693 5692 5690
5736 5734 5734 5732 5731 5731 5730 5729 5727 5725 5724 5724 5721 5719 5721 5722 5723 5723 5722 5721 5721 5720 5718 5717 5716 5715 5714 5713 5712 5710 5709 5708 5706 5704 5702 5701 5699 5697 5696 5695 5693 5692 5690
5735 5734 5734 5732 5731 5730 5729 5728 5726 5724 5723 5722 5719 5715 5712 5715 5719 5723 5721 5721 5720 5719 5718 5717 5716 5715 5713 5712 5712 5710 5709 5707 5706 5704 5702 5700 5699 5697 5696 5694 5693 5691 5690
5736 5736 5734 5733 5732 5730 5729 5728 5726 5724 5721 5721 5721 5717 5710 5708 5713 5717 5719 5720 5719 5718 5717 5716 5715 5714 5713 5711 5710 5710 5708 5707 5706 5704 5702 5701 5699 5697 5696 5694 5693 5691 5689
5736 5735 5734 5733 5731 5730 5729 5728 5727 5726 5723 5719 5719 5718 5717 5715 5710 5710 5714 5716 5717 5716 5716 5715 5714 5713 5712 5710 5709 5709 5707 5706 5705 5703 5702 5700 5698 5697 5695 5694 5692 5689 5688
5734 5734 5733 5732 5731 5730 5729 5728 5727 5726 5725 5722 5719 5717 5715 5713 5712 5709 5707 5710 5712 5713 5713 5713 5712 5711 5710 5709 5708 5707 5706 5705 5703 5702 5700 5698 5696 5695 5693 5691 5689 5687 5685
5733 5733 5733 5731 5731 5730 5729 5728 5727 5726 5724 5722 5720 5718 5716 5713 5711 5709 5706 5705 5706 5708 5709 5709 5709 5709 5708 5706 5705 5705 5703 5702 5700 5698 5696 5694 5693 5691 5689 5687 5685 5683 5681
5731 5732 5732 5731 5730 5729 5728 5727 5726 5725 5724 5722 5720 5719 5718 5717 5715 5711 5707 5704 5702 5703 5704 5705 5704 5704 5704 5703 5702 5701 5699 5697 5695 5693 5691 5689 5687 5685 5683 5681 5679 5677 5675
5733 5732 5731 5729 5729 5728 5727 5725 5724 5723 5722 5721 5720 5718 5717 5716 5715 5712 5709 5704 5699 5698 5698 5698 5698 5698 5698 5697 5696 5695 5693 5691 5689 5687 5684 5682 5680 5677 5675 5672 5670 5668 5666
5732 5731 5729 5728 5727 5726 5724 5723 5722 5721 5720 5719 5717 5716 5715 5714 5713 5711 5710 5707 5701 5694 5691 5691 5692 5691 5691 5690 5689 5687 5685 5683 5681 5679 5676 5674 5671 5668 5665 5663 5660 5658 5656
5731 5729 5727 5726 5725 5724 5722 5721 5719 5718 5716 5715 5714 5713 5712 5711 5709 5708 5707 5705 5703 5697 5689 5686 5684 5683 5682 5682 5680 5678 5676 5674 5671 5669 5666 5663 5661 5658 5655 5652 5649 5647 5644
5729 5727 5725 5724 5722 5720 5719 5718 5716 5715 5713 5712 5711 5709 5708 5707 5706 5704 5703 5701 5698 5695 5686 5679 5676 5674 5673 5672 5669 5668 5665 5663 5660 5657 5655 5652 5649 5646 5644 5640 5637 5634 5632
5726 5724 5722 5720 5719 5718 5716 5715 5712 5711 5709 5707 5706 5705 5703 5702 5700 5699 5697 5695 5693 5690 5684 5675 5669 5666 5663 5662 5660 5657 5654 5652 5648 5645 5643 5640 5637 5634 5631 5628 5625 5622 5619
5723 5721 5719 5717 5716 5715 5713 5711 5709 5707 5705 5704 5702 5701 5699 5697 5694 5693 5691 5689 5686 5683 5679 5672 5663 5658 5654 5652 5649 5646 5643 5640 5637 5633 5629 5626 5624 5621 5618 5614 5611 5608 5605
5719 5718 5716 5715 5713 5711 5709 5706 5704 5701 5699 5698 5696 5695 5693 5691 5689 5687 5684 5682 5679 5674 5669 5664 5656 5650 5645 5641 5639 5635 5630 5627 5623 5620 5616 5613 5610 5607 5604 5601 5598 5595 5592
5716 5714 5712 5710 5708 5706 5704 5701 5699 5695 5693 5690 5688 5687 5686 5685 5683 5681 5678 5674 5670 5665 5659 5653 5647 5641 5636 5631 5627 5624 5619 5614 5609 5605 5603 5599 5596 5593 5589 5586 5583 5580 5577
5709 5708 5707 5705 5702 5700 5698 5696 5693 5689 5686 5683 5679 5677 5676 5674 5673 5671 5668 5665 5661 5656 5650 5644 5638 5632 5626 5622 5617 5614 5609 5605 5598 5591 5589 5584 5582 5578 5575 5571 5568 5565 5563
5702 5701 5699 5698 5695 5693 5691 5689 5686 5682 5678 5675 5672 5669 5666 5663 5661 5658 5654 5652 5648 5644 5641 5636 5629 5623 5617 5612 5608 5603 5598 5593 5586 5580 5577 5572 5568 5564 5561 5557 5554 5551 5549
5695 5693 5691 5689 5687 5684 5682 5680 5677 5674 5670 5666 5663 5660 5656 5652 5649 5647 5643 5638 5634 5630 5627 5623 5619 5613 5608 5603 5599 5594 5587 5580 5574 5569 5566 5561 5555 5551 5548 5544 5541 5538 5535
5688 5685 5682 5680 5678 5674 5673 5671 5669 5665 5661 5656 5653 5650 5646 5642 5639 5636 5633 5627 5622 5617 5613 5610 5606 5601 5597 5592 5588 5583 5577 5572 5565 5558 5553 5549 5543 5539 5535 5532 5529 5525 5522
5680 5677 5673 5671 5669 5666 5663 5662 5660 5657 5652 5647 5642 5639 5636 5632 5629 5626 5622 5618 5611 5604 5601 5597 5592 5588 5584 5580 5576 5572 5567 5562 5555 5548 5541 5537 5532 5528 5525 5520 5516 5513 5509